Starlink 11603

operational
NORAD ID: 63671 Int'l Des: 2025-085 Owner: SPXS Country: US Constellation: starlink
LEOCIRCULAR

About Starlink 11603

Description loading...

Live Position

Loading 3D Globe...

Upcoming Passes

Altitude History

Altitude vs Time

uPlot chart will show altitude changes over time

Two-Line Element Set

1 63671U 25085H 25303.48955118 .00218386 00000-0 16549-2 0 9992
2 63671 43.0000 343.3171 0002215 263.2829 96.7787 15.70928678 29767
Epoch: Oct 30, 2025 • Age: 21 hours

Current Status

Altitude 363.2 km
Velocity 7.69 km/s
Sub-Earth Point -33.09°S, 33.65°E
Launch Date Apr 28, 2025
Age 0.5 years
Type internet

Technical Details

Classification Payload
Mass 960.00 kg
Dry Mass 910.00 kg
Total Mass 960.00 kg
Length 0.30 m
Diameter 4.10 m
Span 29.00 m
Shape Box + pan
Manufacturer SPXS
Bus Type Starlink V2MD
Phase Status In Orbit
Owner/State SPXS/US

Large Constellations

Loading constellations...